NOAA NWS Hourly Roundups by State/Area

State/Regional Roundup for California

To Select A State/Area Choose from List

Select State/Area:  


000
ASUS46 KSGX 191711
RWRSGX

SAN DIEGO HOURLY WEATHER ROUNDUP
NATIONAL WEATHER SERVICE SAN DIEGO CA
1000 AM PDT THU APR 19 2018

NOTE: "FAIR" INDICATES FEW OR NO CLOUDS BELOW 12,000 FEET WITH NO
SIGNIFICANT WEATHER AND/OR OBSTRUCTIONS TO VISIBILITY.

CAZ042-043-060-061-PZZ750-775-191800-

GREATER SAN DIEGO AREA

CITY           SKY/WX    TMP DP  RH WIND       PRES   REMARKS
SAN DIEGO AP   LGT RAIN  57  48  72 SW12      30.09R
NATIONAL CITY    N/A     59  49  68 SW3       30.09R
CHULA VISTA      N/A     60  49  67 W5        29.98S
IMPERIAL BEACH LGT RAIN  58  44  60 SW9       30.08R
BROWN FIELD    CLOUDY    59  43  55 SW9       30.06S
MIRAMAR MCAS   RAIN      57  48  72 W9        30.06R
MONTGOMERY FLD RAIN      55  47  74 W12       30.07R
GILLESPIE FLD  CLOUDY    55  43  62 W12       30.06S

$$

NORTH SAN DIEGO COUNTY

CITY           SKY/WX    TMP DP  RH WIND       PRES   REMARKS
CAMP PENDLETON LGT RAIN  51  48  89 S3        30.07R FOG
OCEANSIDE AP   LGT RAIN  52  48  86 CALM      30.07R FOG
OCEANSIDE HBR    N/A     53  49  87 SE2       30.09R
CARLSBAD       RAIN      53  48  83 W7        30.06R
DEL MAR          N/A     55  50  85 CALM      30.09R
LA JOLLA SCRIP   N/A     53  49  87 W2        30.07R
FALLBROOK        N/A     54  50  87 SW3       30.06R
ESCONDIDO        N/A     55  46  71 W5        30.06R
SAN MARCOS       N/A     53  46  79 SW5       30.10R
POWAY            N/A     56  45  67 W5        30.06R

$$

EAST SAN DIEGO COUNTY

CITY           SKY/WX    TMP DP  RH WIND       PRES   REMARKS
RAMONA         CLOUDY    53  39  59 W15       30.04R
JAMUL            N/A     55  44  65 CALM      30.05S
CAMPO            N/A     49  36  61 SW17G31   29.97F

$$

ORANGE COUNTY AND THE LOS ANGELES BASIN

CITY           SKY/WX    TMP DP  RH WIND       PRES   REMARKS
JOHN WAYNE AP  PTSUNNY   55  43  63 VRB6      30.05R
LAGUNA BEACH     N/A     53  50  89 CALM      30.00F
LAKE FOREST FR   N/A     51  45  80 E1        29.94F
HUNTINGTON BCH   N/A     56  52  85 S5        30.06S
LOS ALAMITOS   PTSUNNY   55  47  74 S9        30.04S
FULLERTON      PTSUNNY   56  44  64 MISG      30.04R
LONG BEACH     CLOUDY    56  44  64 S6        30.05R
L.A. AP        PTSUNNY   55  44  66 W7        30.05R
L.A. DOWNTOWN  PTSUNNY   57  44  62 CALM      30.04R

$$

THE INLAND EMPIRE

CITY           SKY/WX    TMP DP  RH WIND       PRES   REMARKS
CHINO          PTSUNNY   54  43  66 S6        30.04F
ONTARIO        PTSUNNY   51  41  68 S9        30.02F
RIVERSIDE AP   CLOUDY    51  37  58 S7        30.04S
MORENO VALLEY    N/A     51  43  72 SW6       28.17R
MARCH ARB      LGT RAIN  48  42  78 SW6       30.03R
HORSETHIEF CYN   N/A     47  36  64 SW3       30.04R
PERRIS           N/A     49  45  85 W3        29.98R
HEMET EAST       N/A     49  33  56 SW5       29.96R
FRENCH VALLEY  PTSUNNY   52  37  58 SW8       30.04S
TEMECULA         N/A     55  44  67 S5        30.10R

$$

SAN BERNARDINO AND RIVERSIDE COUNTY MOUNTAINS

CITY           SKY/WX    TMP DP  RH WIND       PRES   REMARKS
BIG BEAR AP    PTSUNNY   34  23  64 SW10G20   29.90F WCI  26
ANGELUS OAKS     N/A     32  27  81 CALM      29.90R

$$

SOUTHERN DESERT INCLUDING THE COACHELLA VALLEY

CITY           SKY/WX    TMP DP  RH WIND       PRES   REMARKS
PALM SPRINGS   MOSUNNY   65  26  23 VRB7      29.92S
PALM DESERT      N/A     67  31  26 E6          N/A
THERMAL        SUNNY     69  30  23 VRB7      29.91F
BLYTHE         SUNNY     69  30  23 SW21      29.89
IMPERIAL AP    SUNNY     64  35  34 W25G35    29.94R
EL CENTRO NAS  MOSUNNY   66  32  28 SW23G31   29.98S
YUMA AZ        MOSUNNY   65  34  31 NW20G30   29.94R BLWGDUST
MEXICALI       MOSUNNY   64  28  25 W22       29.95  BLWGDUST

$$

UPPER DESERT

CITY           SKY/WX    TMP DP  RH WIND       PRES   REMARKS
VICTORVILLE AP MOSUNNY   48  28  46 W16       29.96
HESPERIA         N/A     48  34  58 W3        29.98S
APPLE VALLEY     N/A     51  31  45 NW15      29.97F
PALMDALE       SUNNY     53  31  42 W22G28    29.97S
LANCASTER      SUNNY     53  31  42 W26G35    29.96F
EDWARDS AFB    MOSUNNY   54  28  37 W22G29    29.92F
DAGGETT        MOSUNNY   57  28  33 SW38G51   29.86F
29 PALMS N     SUNNY     58  20  22 NW20G30   29.99R
NEEDLES        MOSUNNY   69  18  14 CALM      29.84S

$$

REGIONAL REPORTS

CITY           SKY/WX    TMP DP  RH WIND       PRES   REMARKS
SANTA BARBARA  SUNNY     57  42  57 SW8       30.04S
SANDBERG       PTSUNNY   40  30  67 N15G23    29.99R WCI  32
LAS VEGAS NV   MOSUNNY   61   9  12 SW17G24   29.78R
PHOENIX AZ     PTSUNNY   76  20  12 VRB7      29.87F
TIJUANA        CLOUDY    57  43  58 W7        30.09
ENSENADA NW      N/A     58  32  36 CALM      30.03

$$

OFFSHORE ISLANDS

CITY           SKY/WX    TMP DP  RH WIND       PRES   REMARKS
CATALINA ARPT  PTSUNNY   49  27  42 W20G25    30.05R
SAN CLEMENTE I MOSUNNY   59  44  57 W21       30.09R
SAN NICOLAS IS MOSUNNY   56  44  64 W24G33    30.07S

$$

MARINE AND OFFSHORE BUOY REPORTS

STATION/POSITION SKY/WX   TEMP    WIND        PRES    VSBY  SWELL
                          AIR SEA DIR/SP/G                  HT/PER/DIR
                          (F)     (DEG/KT/KT) (MB)    (MI)  (FT/S/D)
TANNER BANKS               56 56              1019.0R
S CLEMENTE BASIN           57 61  290/ 19/ 23 1018.5R         3/290/11
SAN NICOLAS IS.               57                N/A           3/290/11
SO. S. ROSA ISLA           53 55  310/ 16/ 19 1018.5R         5/280/ 7
W. S. BARBARA CH              52  310/ 14/ 17 1018.7
M. S. BARBARA CH           54 54  280/ 12/ 14   N/A
S. MONICA BASIN                   310/ 14/ 16 1017.5R         2/270/10
S PEDRO CHANNEL               54                N/A           2/270/11
CMP PENDLETON NS              57                N/A           2/220/14
OCEANSIDE OFFSHR              58                N/A           2/210/13
TORREY PINES OTR              58                N/A           2/250/11
SAN DIEGO BAY                 64              1017.9R
POINT LOMA SOUTH              60                N/A           2/260/11

$$




Previous San Diego State/Regional Hourly Roundups.

Products Courtesy of NOAA-NWS
NWS Information Parsing Script by Ken True at Saratoga Weather - Script by SE Lincoln Weather.